This demonstration page uses our WeatherBlox Daily Observations layout. Learn more.

Left ArrowRight Arrow

38.88101, -77.10428

Hourly Observations for November 19, 2021

Temp ( °F °C ) Dew Point ( °F °C ) Humidity (%) Winds ( mph kmh ) Pressure ( in mb ) Visibility ( mi km ) Precip ( " mm )
12:52 am 00:52 Mostly Cloudy 46 7.8 28 -2.2 50 50 WNW 13 20 30.20 1023 10 16 0.00 0.00
1:52 am 01:52 Mostly Clear 45 7.2 23 -5 42 42 NNW 15 24 30.20 1023 10 16 0.00 0.00
2:52 am 02:52 Mostly Cloudy 45 7.2 23 -5 42 42 WNW 8 13 30.21 1023 10 16 0.00 0.00
3:52 am 03:52 Partly Cloudy 43 6.1 24 -4.4 47 47 NW 8 13 30.24 1024 10 16 0.00 0.00
4:52 am 04:52 Mostly Clear 44 6.7 22 -5.6 41 41 NW 10 17 30.25 1024 10 16 0.00 0.00
5:52 am 05:52 Mostly Clear 44 6.7 22 -5.6 41 41 WNW 10 17 30.27 1025 10 16 0.00 0.00
6:52 am 06:52 Partly Cloudy 43 6.1 21 -6.1 42 42 WNW 8 13 30.31 1026 10 16 0.00 0.00
7:52 am 07:52 Partly Cloudy 44 6.7 22 -5.6 41 41 NW 16 26 30.35 1028 10 16 0.00 0.00
8:52 am 08:52 Mostly Sunny 44 6.7 20 -6.7 38 38 NW 22 35 30.39 1029 10 16 0.00 0.00
9:52 am 09:52 Mostly Sunny 45 7.2 18 -7.8 34 34 NNW 18 30 30.41 1030 10 16 0.00 0.00
10:52 am 10:52 Mostly Sunny 46 7.8 19 -7.2 34 34 NW 22 35 30.43 1031 10 16 0.00 0.00
11:52 am 11:52 Mostly Sunny 47 8.3 20 -6.7 34 34 NW 18 30 30.43 1030 10 16 0.00 0.00
12:52 pm 12:52 Mostly Sunny 48 8.9 21 -6.1 34 34 NNW 23 37 30.42 1030 10 16 0.00 0.00
1:52 pm 13:52 Mostly Sunny 48 8.9 21 -6.1 34 34 NW 20 31 30.43 1031 10 16 0.00 0.00
2:52 pm 14:52 Mostly Sunny 47 8.3 21 -6.1 36 36 NNW 18 30 30.44 1031 10 16 0.00 0.00
3:52 pm 15:52 Mostly Sunny 46 7.8 21 -6.1 37 37 NNW 20 31 30.46 1032 10 16 0.00 0.00
4:52 pm 16:52 Mostly Clear 44 6.7 21 -6.1 40 40 NNW 15 24 30.48 1032 10 16 0.00 0.00
5:52 pm 17:52 Mostly Clear 42 5.6 22 -5.6 45 45 NNW 16 26 30.50 1033 10 16 0.00 0.00
6:52 pm 18:52 Clear 41 5 22 -5.6 47 47 N 15 24 30.50 1033 10 16 0.00 0.00
7:52 pm 19:52 Clear 40 4.4 23 -5 51 51 N 13 20 30.52 1034 10 16 0.00 0.00
8:52 pm 20:52 Clear 40 4.4 22 -5.6 49 49 NNW 13 20 30.53 1034 10 16 0.00 0.00
9:52 pm 21:52 Clear 39 3.9 22 -5.6 50 50 NW 6 9 30.55 1034 10 16 0.00 0.00
10:52 pm 22:52 Clear 39 3.9 22 -5.6 50 50 WNW 5 7 30.54 1034 10 16 0.00 0.00
11:52 pm 23:52 Clear 38 3.3 22 -5.6 52 52 N 3 6 30.55 1034 10 16 0.00 0.00

Powered by AerisWeather